Wind_Speed
12 12 13 13 13 13 14 14 14 14 14 14 14 13 13 12 13 13 13 13 13 12 12 11 8 7 7 7 6 8 10 10 10 10 9 10 10 9 10 10 10 8 5 4 3 4 4 7 9 8 5 3 3 2 4 3 1 1 2 3 4 5 5 1 2 2 1 2 2 4 4 3 3 3 2 2 3 5 4 5 4 5 3 6 10 16 24 26
12 12 12 13 13 14 14 14 14 15 14 14 14 14 13 13 13 12 13 13 13 13 12 12 11 9 8 8 7 7 8 9 12 14 17 18 14 13 12 11 11 8 5 3 4 7 6 5 7 8 4 2 3 3 3 3 2 3 3 3 5 5 3 1 3 3 2 4 2 2 5 4 3 5 4 1 5 6 7 8 6 8 5 9 12 19 25 25
12 12 13 13 14 14 14 15 15 15 16 15 15 15 15 14 13 13 13 13 13 13 13 13 12 10 8 8 7 6 6 7 10 12 17 20 19 17 14 11 10 8 6 5 5 7 7 7 6 5 4 3 3 3 3 2 2 4 3 3 6 3 4 3 3 2 2 3 4 4 3 4 5 2 4 3 6 7 10 9 7 10 10 9 11 18 23 22
13 13 13 14 14 15 15 15 16 16 16 16 16 16 15 15 15 14 14 14 13 13 13 13 13 12 8 7 6 4 4 5 5 4 11 17 19 18 15 12 10 9 8 6 5 7 8 9 8 5 4 4 4 4 3 3 3 3 4 5 6 1 3 4 4 3 3 4 3 6 3 3 5 2 4 4 5 7 10 10 11 13 13 11 11 15 20 20
13 14 14 15 15 16 16 16 16 16 17 17 16 16 16 16 15 15 15 15 14 13 14 13 14 12 8 6 4 2 2 2 2 1 5 11 15 16 14 11 9 8 7 5 5 6 8 8 6 4 3 4 4 4 4 6 4 2 5 7 9 5 4 2 4 4 4 3 2 5 6 5 4 4 6 7 7 9 6 6 10 12 12 12 15 16 17 17
13 14 15 15 16 17 17 17 18 17 17 17 17 17 16 16 16 16 15 16 15 14 14 13 13 12 7 4 1 1 1 2 0 1 2 6 12 14 12 10 8 7 6 5 5 6 6 6 5 3 3 4 6 6 6 7 6 3 6 7 10 8 5 3 2 2 2 1 4 4 4 3 4 6 6 9 13 12 5 1 1 4 6 9 17 17 15 15
14 14 15 15 16 17 18 18 19 19 19 18 18 17 17 16 16 16 15 15 15 15 15 14 12 9 6 2 1 1 3 5 4 3 2 5 11 12 11 9 7 6 5 5 7 6 5 5 5 4 4 5 6 9 6 4 5 4 6 7 10 8 6 5 2 4 3 4 6 1 3 3 7 6 5 11 16 15 11 6 1 3 3 8 15 15 15 17
16 16 16 16 17 17 18 18 19 20 20 20 19 18 18 17 17 16 15 15 15 16 15 13 10 7 4 1 1 3 5 6 6 4 4 7 11 11 10 7 6 7 6 7 8 6 5 6 7 5 5 6 4 5 0 3 4 6 7 8 8 5 5 5 2 5 5 5 5 2 3 7 9 5 8 17 15 11 11 10 6 5 5 9 12 14 14 14
18 17 17 17 17 17 18 18 19 20 20 21 21 20 19 18 18 17 16 15 15 16 14 12 9 6 4 2 2 4 3 4 5 5 5 7 10 10 9 7 6 7 6 8 9 8 5 4 6 3 3 4 5 6 1 2 4 4 6 7 6 5 5 6 6 6 6 5 4 5 9 10 8 4 12 20 16 12 10 9 9 7 7 8 10 12 13 13
18 18 18 18 18 18 18 19 19 19 20 21 21 21 20 19 18 18 17 16 16 16 14 11 7 4 4 3 3 4 3 3 4 4 5 7 8 8 8 8 7 7 7 8 9 9 5 2 3 2 3 4 6 6 3 3 2 1 4 6 8 10 8 7 8 7 6 6 6 8 10 9 5 2 10 15 10 11 12 11 11 8 9 9 9 10 12 13
18 19 19 19 19 19 19 19 19 19 19 20 20 20 19 19 18 18 17 16 16 15 12 9 5 4 4 3 4 4 4 3 3 3 4 6 7 7 8 9 9 9 8 9 10 10 6 4 3 1 1 1 4 4 3 1 3 3 4 7 9 11 11 10 11 9 7 5 8 8 8 8 3 4 15 15 2 5 10 11 12 11 10 9 9 9 9 10
18 18 19 19 20 20 21 21 20 20 20 20 20 20 19 19 18 18 17 16 15 13 10 8 4 5 4 4 6 9 8 6 5 4 5 5 6 7 8 9 9 10 9 7 7 8 7 4 1 3 3 1 4 4 2 2 4 3 3 5 11 11 12 13 13 11 8 5 7 6 5 9 9 11 21 19 6 4 7 8 10 11 10 9 9 9 8 10
17 17 18 19 20 20 21 22 21 21 21 21 22 21 19 18 18 17 16 15 14 11 8 6 4 6 4 3 7 13 14 11 8 6 6 6 5 6 7 8 8 10 10 7 5 4 7 5 3 5 3 2 4 2 1 1 1 4 3 5 8 8 9 13 13 11 9 5 8 7 3 8 11 17 21 18 10 9 9 9 9 8 8 8 8 8 9 10
17 17 18 19 20 21 21 21 22 22 22 23 23 22 20 18 17 16 15 15 13 9 6 3 4 4 3 4 8 12 13 12 9 7 6 5 3 3 4 5 5 7 9 8 6 4 5 4 3 3 2 2 3 3 3 3 2 3 5 5 5 4 6 8 6 11 10 4 9 7 5 9 10 14 20 17 9 11 11 10 9 8 8 8 8 9 10 11
17 17 18 19 21 21 22 22 23 22 22 23 23 23 21 19 17 15 15 14 11 7 4 3 6 4 2 6 7 8 9 9 7 7 7 6 5 3 3 4 3 3 4 5 5 4 4 4 2 2 1 1 1 2 4 5 4 3 3 4 5 4 7 7 2 13 12 3 8 7 3 9 13 11 10 12 10 11 11 10 9 10 10 9 9 10 11 10
17 18 19 20 21 22 23 24 25 25 24 24 22 21 20 18 16 14 13 11 7 4 3 3 8 7 4 4 4 4 5 5 5 8 8 8 8 4 5 5 3 3 3 3 3 3 4 3 1 1 1 1 1 3 3 4 5 4 5 5 6 6 7 6 1 8 10 5 7 10 5 6 9 6 2 2 9 11 9 9 9 11 11 11 10 9 11 10
17 18 19 20 22 23 24 25 27 27 27 25 23 21 18 15 15 13 10 7 5 6 7 3 4 7 3 3 4 3 4 5 7 9 9 10 9 5 6 5 4 5 3 2 2 2 4 3 1 0 2 4 4 4 3 5 6 4 5 6 7 8 8 5 1 5 7 6 7 12 10 11 9 7 2 1 6 9 9 9 10 10 10 11 9 9 11 10
17 18 19 20 22 23 24 26 27 28 28 27 23 20 17 13 12 9 5 5 4 4 4 4 2 3 4 5 5 2 5 6 8 9 8 11 11 8 6 4 3 5 4 3 3 3 3 2 2 1 3 4 4 5 5 7 7 5 6 5 6 8 8 8 4 3 9 7 7 9 11 15 15 12 10 9 8 9 11 10 10 11 11 12 10 10 10 11
17 18 19 20 21 23 25 26 27 28 28 26 22 17 14 9 5 5 6 7 5 3 3 4 6 3 2 4 5 4 5 6 7 7 8 10 11 8 6 4 3 4 4 2 4 6 4 2 3 3 6 7 8 9 10 11 10 9 10 7 8 7 7 11 8 4 11 8 8 11 11 14 16 14 13 14 11 11 12 10 10 11 12 12 11 10 10 12
17 18 19 20 21 23 26 26 26 28 27 24 21 15 8 4 2 2 4 6 7 7 6 4 10 8 5 3 6 6 5 6 6 7 11 12 11 8 4 4 3 3 4 3 4 4 4 4 5 7 11 10 9 12 13 14 13 12 12 9 9 8 8 13 10 4 9 6 8 13 12 13 16 15 13 13 12 12 12 11 11 12 12 12 11 12 13 13
17 18 19 20 20 23 26 26 26 26 23 18 16 11 4 3 3 2 0 6 12 14 12 9 11 11 7 4 9 9 4 4 6 7 13 13 11 8 5 6 4 3 6 6 4 0 1 6 9 14 15 10 9 11 12 12 13 12 10 8 8 7 10 14 8 3 6 5 7 10 11 13 16 16 13 12 13 13 13 12 13 15 15 12 11 14 14 10
17 17 18 19 19 22 25 27 26 23 18 13 11 7 4 6 4 2 2 5 9 14 14 12 12 11 8 6 10 9 3 4 7 6 13 13 10 7 6 8 7 6 6 6 5 2 4 9 13 16 12 9 11 11 9 10 10 9 6 5 7 7 10 11 4 2 3 3 5 8 10 11 14 16 15 14 14 13 13 14 15 16 15 13 13 13 11 8
16 17 18 18 19 22 24 27 24 16 12 11 9 7 7 7 4 2 2 5 7 11 11 12 13 11 10 10 9 10 5 9 10 8 18 16 8 6 6 8 9 7 7 8 9 6 6 9 13 15 12 12 13 10 8 9 8 8 6 5 8 9 9 7 2 3 4 5 5 7 8 9 12 15 16 17 18 15 14 16 16 15 15 15 16 12 8 9
16 16 17 17 19 20 23 26 17 10 12 12 8 7 9 7 3 5 3 4 6 8 10 13 12 10 13 11 10 13 10 10 8 7 20 19 7 4 6 8 9 7 8 11 13 13 13 7 5 8 10 11 12 9 7 7 8 8 7 7 10 11 11 9 5 2 4 7 5 4 8 8 10 14 15 13 12 13 13 13 14 14 15 15 14 11 8 9
16 16 16 17 17 19 24 20 9 11 17 10 5 8 11 6 3 5 3 4 6 3 3 7 5 7 12 9 11 11 4 7 6 4 17 18 9 6 4 6 7 8 11 13 13 13 14 7 5 5 5 7 8 7 7 6 8 8 7 11 15 14 12 11 8 4 3 5 2 1 7 7 7 12 12 5 4 9 8 10 13 13 15 14 10 10 10 8
16 16 15 15 16 19 20 10 7 17 15 3 5 11 11 6 5 6 2 3 7 2 2 4 5 7 10 7 8 6 3 5 2 5 15 13 7 5 3 4 4 8 10 9 9 7 6 4 6 8 8 7 7 6 7 8 8 9 4 7 10 11 10 9 7 3 3 5 2 3 2 8 7 8 9 4 6 9 7 8 12 12 13 12 9 9 8 8
18 16 15 13 14 16 11 6 13 17 6 2 9 13 11 7 6 5 1 4 8 4 4 2 2 4 7 4 5 7 0 2 3 4 7 5 4 3 4 7 5 6 4 1 5 4 4 6 5 7 7 7 7 8 8 9 7 6 2 1 1 3 5 4 3 4 4 4 3 4 4 8 13 7 8 8 8 8 8 8 11 13 13 11 11 10 8 9
19 17 14 12 13 12 9 10 14 10 4 8 13 12 10 7 5 4 1 5 4 4 4 1 0 2 3 1 2 4 1 1 3 0 2 1 2 2 6 10 8 6 5 4 7 3 3 7 8 9 7 6 8 6 5 9 7 4 1 2 3 2 1 1 1 4 3 5 4 6 7 5 13 6 7 10 10 9 10 10 13 15 13 11 12 11 8 10
20 18 13 10 11 12 11 11 10 7 9 12 12 10 8 5 3 1 2 6 2 3 1 2 2 1 3 1 2 2 1 1 1 1 2 0 2 0 4 7 6 7 4 6 10 5 0 4 5 6 7 6 5 1 2 3 6 4 2 4 5 2 1 2 2 2 2 6 7 7 9 5 13 10 6 7 8 10 10 10 13 15 13 10 11 11 9 9
20 19 14 10 9 9 9 9 10 10 11 10 10 9 5 3 1 1 7 6 1 2 1 2 1 3 7 5 3 5 4 0 2 1 1 2 2 0 2 2 2 5 5 5 9 6 1 2 1 2 4 4 4 4 3 1 2 3 3 3 2 1 1 2 2 1 1 9 8 10 14 9 9 7 5 7 9 10 10 10 12 11 10 10 10 9 9 8
21 19 14 13 13 8 4 5 7 6 7 8 8 6 3 2 1 5 9 3 2 1 3 1 2 7 9 8 5 6 7 3 3 5 3 2 3 2 2 1 1 1 3 5 8 6 2 1 1 1 1 4 5 3 1 2 0 2 3 2 1 2 2 3 1 3 2 10 5 11 17 14 10 5 3 4 8 12 12 11 12 11 10 11 9 9 8 9
22 19 16 17 18 13 7 5 3 3 7 9 7 2 1 1 4 9 6 2 1 4 4 3 5 6 8 9 5 5 7 4 6 7 5 4 5 5 6 6 5 2 3 5 4 4 5 8 7 2 1 5 6 2 1 3 1 2 4 4 1 2 2 1 2 2 5 10 4 10 14 12 13 9 2 3 5 11 11 9 11 12 11 10 9 9 7 8
25 21 18 20 22 20 16 13 9 7 7 6 4 1 1 2 8 8 6 2 1 1 2 3 7 7 7 6 4 5 5 3 7 7 5 6 5 6 8 8 6 3 5 5 3 2 3 5 6 4 3 5 8 6 4 2 4 7 6 6 5 3 2 3 4 3 6 9 4 6 8 6 8 7 9 12 10 11 11 10 11 10 10 10 10 9 7 8
29 24 23 24 25 25 22 19 15 10 2 4 3 1 1 7 8 2 5 7 4 1 1 2 6 7 6 5 4 7 5 3 7 8 5 6 4 5 7 10 11 6 2 2 2 4 4 7 6 9 3 8 13 13 9 4 5 9 6 5 6 4 3 3 5 6 5 6 4 3 5 4 3 3 12 16 15 12 11 12 12 9 9 9 7 7 7 8
29 29 28 27 27 27 24 21 17 11 9 7 2 2 6 10 7 2 4 6 4 3 0 2 3 6 6 5 3 6 7 5 7 7 5 7 6 6 6 9 14 9 3 3 3 4 5 9 7 7 1 10 13 11 7 6 2 6 5 4 5 5 5 4 6 7 3 5 6 4 4 6 5 6 9 11 12 13 12 12 11 8 8 8 6 7 7 7
26 30 29 27 28 29 29 26 22 17 14 7 3 6 10 10 5 2 3 2 3 2 2 1 2 4 5 4 3 6 5 3 5 6 4 7 8 7 6 5 12 14 9 6 3 3 4 6 3 4 3 5 6 4 4 3 1 3 4 5 5 3 6 5 6 5 2 6 9 5 6 8 8 10 11 11 12 12 11 12 11 10 11 10 7 7 7 7
20 22 22 25 28 30 32 31 27 22 13 6 7 9 10 8 8 7 4 3 4 3 1 4 4 5 6 4 4 7 4 0 4 5 3 4 6 8 9 6 10 16 15 9 3 3 5 6 3 3 2 3 2 3 1 2 2 5 3 5 1 3 1 3 1 3 3 7 9 7 9 11 9 9 6 9 13 13 12 13 13 13 13 11 8 7 8 8
12 13 15 25 31 30 31 33 30 21 7 4 9 12 8 6 7 8 7 6 7 6 4 6 5 6 7 6 5 7 7 4 5 5 4 4 4 7 10 7 9 16 19 14 6 4 4 5 4 1 1 2 2 2 2 3 2 5 2 2 2 1 1 3 3 2 4 6 8 11 14 12 12 10 5 6 12 14 14 14 14 15 14 10 8 9 9 8
8 6 7 16 25 28 33 35 27 13 4 6 10 10 6 5 6 6 9 9 7 5 7 8 6 5 6 7 5 4 9 9 7 5 5 5 5 6 11 7 8 15 19 16 9 4 3 4 5 1 2 2 2 1 4 3 1 2 2 3 1 2 3 4 4 3 5 6 7 12 15 13 10 8 7 9 13 14 13 12 12 13 12 9 8 9 8 8
4 4 3 2 12 27 36 31 17 7 5 5 7 8 5 4 5 7 10 10 5 3 6 8 7 7 8 9 9 6 6 8 6 5 5 5 5 5 8 8 6 10 15 15 11 5 2 4 5 1 3 1 2 4 8 8 6 4 1 3 3 2 1 1 3 3 5 6 6 7 12 14 5 2 5 8 10 11 11 10 10 10 10 10 9 8 7 7
2 4 3 5 18 31 30 17 7 6 5 3 5 9 8 5 5 6 9 10 7 4 7 10 9 9 10 10 10 7 5 5 6 6 5 6 7 5 5 8 7 7 8 7 8 6 3 4 6 2 1 5 8 9 13 15 13 10 8 9 9 7 4 3 6 6 4 4 6 6 11 16 4 6 4 6 9 11 11 11 10 9 10 10 8 8 8 8
4 4 1 12 28 32 20 5 3 4 4 4 5 5 4 4 6 7 8 9 9 6 7 9 10 10 10 10 10 9 7 5 5 6 6 7 10 7 4 8 8 8 8 6 8 9 5 3 5 7 8 11 11 7 9 12 10 6 6 8 8 8 8 8 9 6 3 3 6 7 12 17 6 7 5 3 7 8 9 11 9 8 9 9 7 9 9 10
4 4 2 15 31 29 12 3 3 3 4 3 3 5 4 3 4 5 6 7 8 7 7 7 9 11 11 9 9 9 8 7 8 10 9 7 7 6 5 6 7 6 6 5 5 5 3 3 5 8 6 8 8 2 2 2 1 3 5 6 8 9 10 10 8 6 5 5 8 9 12 15 7 4 4 4 6 4 5 7 8 7 7 7 8 9 9 10
3 3 1 14 32 26 8 4 4 4 6 4 5 8 8 5 5 8 9 8 7 5 7 8 9 10 9 7 8 8 8 7 7 10 10 7 5 8 11 7 3 4 5 3 1 4 3 3 6 7 6 6 7 5 4 4 0 3 6 7 9 10 10 8 5 5 7 10 15 14 10 12 9 1 4 5 6 5 6 6 6 7 8 8 9 9 9 9
3 4 1 10 23 18 6 7 8 7 9 10 12 13 12 7 7 12 15 13 10 8 7 7 6 7 7 7 8 9 10 8 5 6 8 8 8 8 9 10 8 6 4 6 7 3 5 4 5 7 8 8 9 10 6 2 2 2 5 8 10 11 11 9 6 6 9 13 18 15 10 13 14 10 10 12 10 9 10 10 8 8 8 9 8 8 8 9
2 3 2 4 10 8 5 6 9 9 9 11 10 11 15 14 9 13 16 15 14 15 13 8 4 4 7 8 10 11 12 12 8 5 5 6 7 6 3 3 5 6 6 10 9 3 0 2 8 12 12 11 12 12 9 4 3 4 6 9 10 11 12 10 7 8 11 13 14 13 14 17 18 20 22 21 18 17 15 15 13 11 9 9 8 8 9 9
3 4 3 1 2 5 6 6 8 9 9 10 7 6 14 18 12 10 12 11 12 14 12 9 7 8 8 10 12 12 12 13 10 9 10 9 9 8 7 6 6 7 6 5 3 1 1 4 12 15 17 15 15 17 17 15 14 13 12 12 11 11 13 13 12 15 15 14 13 12 16 20 19 20 24 24 21 18 15 15 16 15 14 11 8 8 9 10
3 3 2 3 2 3 5 5 7 8 9 10 8 7 14 18 15 11 10 9 11 11 7 6 11 17 17 16 13 10 10 11 9 10 12 11 11 11 10 11 12 9 6 4 2 3 3 6 9 11 15 16 15 17 19 19 19 18 17 18 15 12 13 15 18 21 18 15 14 14 19 24 20 17 20 21 20 18 16 16 17 18 18 17 14 10 9 10
3 3 3 5 4 4 5 6 6 8 9 9 7 8 13 17 18 15 9 7 8 8 9 11 13 17 21 22 17 12 11 11 11 12 12 12 12 10 8 9 9 6 7 7 3 3 4 6 8 12 16 16 17 18 20 20 20 19 19 19 17 15 17 19 20 20 18 18 19 21 24 24 18 16 18 18 16 17 18 20 22 22 21 21 18 13 11 11
3 2 3 4 4 5 7 7 6 6 7 7 6 7 10 15 18 15 10 9 9 6 11 17 19 18 19 19 18 16 16 17 18 18 14 12 11 9 7 8 6 2 4 6 3 3 5 7 10 11 11 14 17 19 21 21 20 22 23 20 18 19 22 23 22 18 16 19 23 24 23 20 17 17 19 17 18 19 22 25 26 23 22 21 18 16 15 15
6 6 5 4 5 5 6 6 5 6 6 6 5 6 9 13 15 14 11 12 14 11 10 15 19 16 15 17 18 20 21 23 25 25 21 16 12 10 8 8 9 6 5 6 4 4 6 7 7 7 8 11 15 19 23 23 23 24 23 21 22 23 23 21 20 19 19 21 24 22 18 16 15 16 16 17 21 23 25 26 24 21 21 20 19 17 16 16
8 8 5 4 4 5 6 6 7 7 6 6 7 7 9 11 11 12 11 8 12 15 14 15 17 13 13 18 20 19 19 20 22 22 20 17 15 14 10 8 12 11 7 7 6 5 7 6 6 7 9 10 14 20 21 19 17 15 16 22 29 29 25 22 20 22 24 22 18 16 17 17 15 13 15 19 23 24 24 22 19 17 19 19 18 17 15 15
Wind_Direction
8 8 8 9 7 8 8 8 9 10 12 12 11 10 9 8 3 0 357 355 355 355 356 355 348 338 335 325 300 278 275 279 285 277 251 253 258 253 261 262 268 268 268 284 182 190 208 204 222 212 193 164 192 211 151 171 182 182 200 219 244 246 251 279 332 351 18 334 115 178 188 216 225 156 145 106 235 247 220 226 200 203 195 116 127 136 141 149
355 356 357 358 358 359 359 360 0 0 2 4 5 5 4 4 359 356 352 349 347 347 348 349 346 339 332 328 318 293 280 273 270 263 252 255 256 252 260 261 260 258 257 256 197 213 226 223 211 188 191 203 185 169 151 169 158 207 235 241 244 259 261 230 341 349 5 325 323 172 183 225 233 163 138 170 222 216 228 237 207 215 188 125 137 143 146 153
346 347 348 348 350 351 351 351 351 352 353 355 357 358 358 358 358 355 350 346 343 341 340 340 339 338 331 325 324 303 290 283 269 258 249 245 241 241 247 249 248 245 240 227 217 241 263 288 275 207 199 235 203 167 177 180 163 214 225 257 252 279 315 309 348 336 0 356 312 278 188 201 243 178 120 212 242 223 226 228 204 220 212 169 157 151 153 160
340 340 340 341 342 343 344 344 345 345 345 347 349 350 352 352 353 353 351 347 341 338 335 333 334 333 329 324 319 299 301 295 270 238 231 228 225 226 228 234 235 232 229 224 245 266 276 285 283 253 218 244 227 182 186 180 167 215 190 232 258 280 324 320 24 18 34 46 314 293 279 221 243 221 151 196 249 247 234 224 210 216 217 186 163 162 163 167
333 334 335 335 336 337 338 339 339 340 339 340 342 344 346 346 348 349 350 348 343 339 334 330 328 326 325 324 310 280 316 288 264 273 230 218 214 213 210 216 218 222 222 219 250 260 263 262 254 246 227 254 242 198 212 199 177 257 231 243 262 267 283 309 67 41 46 64 295 279 273 251 232 219 196 199 226 242 228 216 219 215 218 191 167 170 170 173
328 329 329 329 330 332 332 334 334 335 335 335 337 339 340 341 343 344 346 346 343 340 335 329 324 320 317 326 322 203 266 273 282 350 260 216 208 203 198 203 208 217 212 215 250 251 252 251 232 226 229 250 244 232 232 197 167 236 251 250 262 263 268 265 105 86 72 187 239 247 280 283 246 243 221 215 228 239 235 195 215 205 226 182 165 169 173 181
326 325 325 326 326 327 328 329 329 329 330 331 332 334 336 337 337 339 342 343 341 341 337 328 320 313 312 347 84 198 241 272 277 246 241 205 198 196 194 198 205 207 196 211 236 240 243 242 232 229 237 245 249 249 237 159 156 228 261 268 277 277 266 271 124 141 188 229 243 280 359 285 240 246 241 235 235 239 248 258 212 112 85 126 154 173 180 187
327 326 326 326 325 326 326 325 326 327 327 327 329 331 333 333 333 335 336 338 339 339 338 329 316 302 299 120 168 257 240 254 254 228 215 204 196 192 195 198 204 197 191 217 231 252 264 252 251 250 250 250 281 293 254 127 187 223 251 259 271 279 264 268 187 171 204 231 249 284 284 249 240 261 269 254 247 239 239 244 221 169 140 133 159 182 185 192
329 328 328 328 327 326 325 325 325 326 326 326 326 328 331 331 331 332 333 335 336 338 338 327 311 285 260 203 258 276 248 234 223 217 214 207 202 200 200 197 202 194 199 227 237 259 270 263 266 283 302 283 301 312 317 183 219 217 255 275 286 288 274 259 231 205 209 222 215 237 252 250 248 277 272 257 249 247 238 236 225 188 187 181 175 184 188 196
331 331 330 330 329 327 325 325 325 326 325 324 324 325 328 328 328 329 331 333 334 337 336 323 306 268 231 210 246 258 255 246 218 220 227 219 212 209 205 199 196 196 217 232 227 240 250 297 305 46 9 311 296 291 227 199 247 302 298 308 301 290 283 264 253 230 213 218 195 214 246 252 235 183 259 257 239 235 232 233 230 204 205 206 195 191 191 199
332 332 332 333 331 329 328 327 327 326 324 322 321 321 323 325 325 326 328 330 332 336 334 323 296 239 219 216 240 244 245 245 226 221 223 222 214 209 210 209 205 202 222 237 226 231 254 310 350 65 38 318 314 290 207 191 332 333 338 314 285 275 268 250 248 238 219 223 199 208 256 262 215 179 246 252 222 209 216 224 227 216 215 206 207 205 194 205
334 334 335 335 334 332 332 331 330 328 324 321 317 317 321 321 320 321 323 325 329 332 331 320 274 213 225 245 240 239 244 243 239 240 226 224 219 213 219 224 224 213 219 246 235 221 237 268 289 242 253 302 314 293 233 9 334 312 358 303 279 274 264 246 237 224 206 212 179 176 275 263 219 216 246 249 228 212 215 222 222 217 217 202 207 212 205 212
336 337 337 337 336 335 335 335 334 330 325 320 317 318 320 318 317 316 317 319 322 325 322 304 239 207 227 264 239 233 241 245 246 251 237 236 235 227 232 236 236 225 224 246 256 213 218 220 196 237 276 284 280 299 294 306 264 270 250 251 276 288 268 247 232 205 190 189 149 143 266 264 226 216 239 252 224 202 218 226 221 217 217 205 206 214 216 213
337 338 339 338 337 338 338 338 335 330 324 320 318 319 319 316 313 310 311 311 313 315 308 271 212 193 209 260 255 239 238 243 246 247 238 227 209 231 243 235 237 234 231 242 254 242 215 196 197 253 282 233 261 349 317 265 205 258 266 248 252 275 271 264 229 179 176 177 148 152 240 263 261 225 229 246 214 187 212 220 218 219 218 216 212 215 220 214
333 335 336 336 337 338 340 340 336 329 324 321 320 320 318 313 307 305 304 300 300 295 274 216 198 185 263 260 253 247 238 242 241 224 224 201 179 218 214 194 209 210 216 229 234 228 196 172 192 258 262 168 311 318 294 273 238 219 247 260 230 225 262 281 208 169 174 178 166 166 225 252 267 259 237 236 196 178 208 214 214 221 221 223 219 216 223 222
329 331 331 333 336 337 339 340 335 329 325 323 323 321 316 309 301 297 293 287 283 252 196 189 198 197 293 268 220 246 228 223 214 203 214 197 185 198 166 157 173 177 188 209 205 192 176 180 226 263 260 218 198 226 260 279 262 215 198 244 241 236 261 268 221 185 173 130 184 199 226 248 248 257 319 192 177 176 206 216 213 219 223 226 223 217 222 227
325 327 328 331 334 336 339 340 335 330 327 325 325 323 317 305 289 283 279 261 242 198 187 218 204 193 250 248 230 248 181 181 193 196 212 201 187 171 156 161 179 171 160 167 166 172 183 188 156 104 235 227 214 213 238 259 258 238 208 234 242 239 256 256 274 232 185 145 196 212 233 253 248 244 274 187 180 186 208 221 225 227 228 232 229 220 221 224
322 323 325 329 333 336 338 338 336 332 328 325 325 323 316 299 275 264 233 191 161 155 205 266 245 208 234 225 224 176 137 166 183 191 205 198 189 180 183 202 182 166 164 178 187 179 182 188 177 228 252 225 211 202 206 228 239 247 240 254 261 247 249 254 274 209 188 187 212 213 229 249 256 258 262 255 225 211 220 225 237 242 241 243 240 232 227 222
318 321 323 328 332 335 337 337 335 333 330 325 327 325 310 294 264 223 177 159 142 151 225 216 188 211 244 187 175 131 128 153 170 190 192 186 186 182 202 229 187 185 194 188 192 181 173 190 190 230 246 224 209 207 214 231 243 260 267 270 271 272 265 263 276 185 182 197 218 220 229 244 253 253 254 258 245 232 236 232 238 243 244 246 243 241 235 228
315 318 322 328 332 334 337 337 335 335 332 330 338 335 309 292 271 216 177 190 214 235 272 214 188 220 261 158 139 139 146 165 182 189 178 174 167 159 196 218 181 212 226 200 186 177 169 188 202 224 236 231 216 218 226 237 248 259 267 270 266 272 271 268 276 209 186 199 219 224 232 244 254 255 250 257 257 250 249 244 244 244 244 245 241 243 239 235
312 315 319 325 329 333 336 338 337 336 333 335 341 330 320 351 304 304 266 236 232 235 256 243 208 228 245 157 149 158 142 197 213 182 174 174 158 151 181 188 177 211 220 219 212 94 185 205 218 230 238 244 238 237 239 242 248 252 257 267 271 265 267 273 278 206 188 202 232 238 245 249 256 262 259 256 254 253 251 249 251 250 251 252 246 246 242 234
309 310 316 319 325 330 335 338 337 335 336 344 338 312 343 5 319 323 322 267 243 229 240 244 232 242 241 200 182 169 119 233 229 179 169 174 170 177 180 170 192 210 191 204 223 227 225 227 232 239 247 255 254 254 255 260 261 263 268 272 274 269 273 281 280 191 186 191 241 251 256 257 260 263 262 257 252 248 246 246 249 252 257 259 253 251 243 220
304 307 312 314 320 326 332 337 339 345 351 349 337 319 337 342 339 11 285 273 272 239 232 231 229 235 233 234 205 180 198 228 234 201 174 174 181 195 190 180 204 218 186 193 211 217 226 228 234 243 250 252 254 249 245 268 267 252 255 261 266 262 267 279 248 198 205 211 245 267 268 260 263 266 262 255 252 250 248 246 250 253 254 254 253 254 235 207
299 304 308 312 316 320 330 337 347 12 354 335 325 322 326 316 333 6 307 267 266 229 219 221 221 223 223 228 192 188 220 220 224 210 176 173 167 173 205 204 207 221 212 212 216 226 238 227 210 237 240 235 244 245 233 255 261 241 225 231 252 254 251 257 251 215 221 231 241 291 289 263 244 252 257 256 249 246 243 241 249 254 253 252 254 255 234 203
292 296 301 309 311 316 328 334 355 359 338 330 326 325 325 308 312 348 337 270 255 229 230 219 209 222 214 200 174 179 234 224 219 185 171 176 167 153 201 207 209 225 219 225 229 237 245 223 174 204 223 218 228 239 217 218 258 260 215 217 240 253 256 262 280 321 303 267 215 194 287 269 211 223 249 260 212 232 232 226 238 247 253 252 247 249 236 205
284 287 295 304 306 317 329 334 341 336 329 329 338 327 322 310 305 324 348 273 259 201 106 190 178 199 192 166 155 136 7 255 227 117 164 185 186 168 212 187 205 234 216 224 240 243 239 182 172 201 216 220 225 244 219 204 257 272 229 219 240 255 263 265 280 297 260 266 243 131 286 284 257 225 240 234 191 221 224 218 233 240 248 249 241 240 221 194
277 279 287 298 304 316 331 325 323 331 328 305 329 325 319 312 304 309 336 283 267 163 126 210 190 172 168 150 148 135 228 248 75 104 166 191 198 184 231 199 196 228 196 204 258 233 172 155 171 200 212 221 226 246 224 198 235 267 263 272 228 252 265 261 262 244 240 289 273 163 148 278 280 246 202 201 193 218 228 223 236 240 241 245 251 248 205 186
274 274 280 290 295 304 311 303 312 326 305 303 315 314 317 317 307 315 257 269 270 118 117 220 76 92 108 17 176 151 257 213 111 50 36 40 198 172 228 223 221 215 166 172 235 257 150 182 203 198 196 219 222 240 215 184 212 249 22 42 77 84 317 74 231 250 290 319 271 186 151 243 277 256 172 186 193 210 222 219 231 239 235 233 244 244 208 192
272 271 270 274 282 290 297 292 289 292 292 300 306 310 322 319 307 0 240 255 244 102 102 130 110 95 103 56 253 203 337 30 138 294 33 96 218 110 233 240 259 251 222 207 231 265 112 193 218 187 187 221 213 87 28 173 204 216 131 76 74 82 44 76 230 263 352 289 251 185 159 209 274 268 190 188 203 208 216 218 228 237 236 226 229 231 205 192
270 270 264 257 264 279 290 278 261 277 298 300 303 317 328 304 302 203 236 249 310 74 81 91 132 146 137 138 215 220 212 129 79 115 151 198 176 42 269 275 301 274 277 267 257 261 157 93 347 204 194 198 128 85 29 60 161 169 138 81 55 267 28 64 232 99 30 271 249 184 178 194 270 280 173 184 201 195 202 220 229 235 240 233 225 220 198 183
270 269 260 243 242 246 274 269 243 270 307 310 316 331 311 269 166 225 234 244 348 179 124 158 176 137 156 179 194 196 196 194 135 152 187 186 160 187 235 229 98 323 301 283 271 258 216 167 204 257 179 130 111 98 15 9 76 124 119 114 343 295 17 36 298 99 201 266 248 175 181 191 233 269 118 177 194 188 199 215 218 218 229 234 224 216 196 175
268 265 254 241 241 233 225 231 216 277 311 325 338 337 268 254 226 233 235 55 26 200 152 173 179 159 187 207 212 172 173 190 169 174 187 166 175 193 202 200 159 145 259 240 243 241 236 228 202 203 310 163 145 122 20 351 304 146 136 138 143 285 318 310 249 154 216 258 240 171 179 200 235 251 243 239 200 193 209 217 212 206 209 223 221 213 193 165
265 263 252 240 237 229 223 227 234 263 303 352 3 306 18 255 239 226 205 200 237 184 91 142 173 180 189 203 218 169 175 203 166 179 195 169 192 212 212 222 201 213 244 208 205 207 260 269 188 166 297 184 164 179 216 246 191 176 159 148 163 203 242 244 243 234 239 260 260 168 175 220 265 251 213 224 220 201 208 215 214 199 192 213 217 201 177 160
264 257 249 241 234 231 227 224 232 244 237 71 50 6 170 238 248 203 172 214 242 232 20 70 163 184 197 212 196 157 184 228 161 173 196 169 196 222 211 223 221 231 248 194 229 189 240 288 182 168 217 175 180 206 205 150 163 192 175 161 189 189 191 227 234 242 259 279 272 166 170 227 278 205 191 208 218 207 203 213 215 200 197 219 211 171 160 162
265 255 248 240 230 229 223 216 222 209 153 123 112 172 208 233 248 278 230 237 250 216 95 21 160 185 223 237 201 175 200 222 168 167 196 187 201 216 201 205 206 206 168 187 245 172 229 272 185 159 198 166 182 219 197 116 146 211 158 166 227 200 184 238 259 247 264 304 272 208 212 246 261 256 220 211 219 212 208 217 214 207 218 228 208 170 168 172
263 254 246 233 224 223 217 211 210 188 158 138 159 205 224 235 231 235 261 258 256 228 116 278 205 186 232 229 202 211 217 235 183 168 205 215 221 223 207 191 193 196 187 184 220 178 229 279 158 117 338 172 178 236 186 144 213 186 148 194 223 168 167 216 277 279 262 278 271 236 241 274 294 276 240 211 217 216 211 218 214 210 220 223 211 189 186 185
262 252 240 230 225 220 215 212 200 181 167 149 176 212 230 234 232 241 283 345 302 307 144 223 210 181 223 234 207 203 187 227 188 173 191 206 223 221 210 207 185 192 202 199 217 233 228 266 215 157 301 265 264 316 308 319 124 137 182 219 198 38 100 166 260 308 261 257 272 263 261 276 284 279 238 193 208 214 209 212 211 214 222 223 212 202 204 195
273 249 242 241 232 217 211 206 188 171 161 161 200 228 235 231 233 243 273 304 307 302 258 245 224 186 218 245 225 180 170 189 180 176 210 204 219 201 189 208 187 187 205 207 222 259 207 249 261 164 353 319 333 323 299 328 74 134 215 265 106 92 223 166 173 223 237 250 274 278 278 274 256 260 277 212 205 206 208 208 208 214 220 220 217 216 210 189
290 253 259 250 233 218 207 195 176 160 165 180 207 229 235 251 261 265 282 295 310 296 263 263 259 231 240 256 260 183 175 196 183 176 207 206 225 193 168 189 194 191 201 198 208 245 175 218 254 305 355 343 2 226 195 234 275 95 359 341 82 163 175 181 186 190 216 239 268 283 288 279 250 239 242 217 198 198 203 205 210 219 220 216 215 219 210 189
288 246 278 249 212 208 196 181 163 156 187 188 212 229 244 280 272 257 261 267 279 273 262 272 274 268 271 273 278 263 206 209 203 202 213 197 222 221 177 177 184 194 202 196 202 219 160 217 233 277 352 310 228 203 184 191 200 178 217 246 212 184 121 218 247 220 206 222 244 268 277 273 258 156 198 191 181 193 195 198 211 218 223 221 212 215 210 202
237 249 263 157 179 184 176 166 162 175 186 207 227 236 252 278 280 266 265 271 275 262 262 273 273 274 280 277 276 272 245 228 216 218 229 217 232 248 187 180 178 176 186 193 203 200 175 213 215 198 239 237 233 212 198 202 197 185 195 205 204 193 173 229 247 232 203 215 229 231 260 266 259 99 127 159 173 196 193 198 213 213 220 226 217 216 214 209
234 256 188 166 175 169 157 168 216 178 192 217 219 238 253 259 270 272 272 277 276 266 268 275 272 268 271 272 273 275 272 263 242 235 241 238 238 242 203 190 185 163 159 183 209 199 166 162 210 221 227 243 251 224 208 220 215 211 216 206 203 193 188 215 230 229 214 215 232 235 250 259 258 83 73 135 172 201 196 189 199 208 216 219 215 221 224 218
228 245 139 175 177 165 155 216 211 204 236 242 276 271 255 247 263 268 260 254 251 249 252 261 265 262 262 266 270 277 280 273 260 257 267 272 258 273 281 229 195 174 176 196 215 198 132 114 210 236 249 267 278 296 15 334 200 233 245 215 208 205 206 221 224 227 228 210 227 239 244 257 268 88 103 137 143 188 219 187 185 210 220 217 221 226 228 227
246 257 166 187 183 172 170 220 198 225 236 256 278 256 254 262 248 251 254 238 225 232 241 244 249 253 261 276 274 275 280 273 263 265 277 288 296 329 329 305 263 222 213 227 247 198 197 194 207 236 257 268 274 272 305 337 148 219 240 225 226 226 226 241 246 236 240 230 235 243 249 261 269 170 157 186 170 194 233 220 209 230 238 235 236 237 233 229
271 250 212 193 191 187 204 212 211 228 220 228 240 237 244 250 227 234 244 243 234 230 240 243 235 238 251 269 271 264 259 253 255 269 274 277 286 313 330 331 331 298 272 351 354 238 209 201 193 224 237 231 241 245 239 216 166 222 248 236 234 229 224 236 246 235 237 236 237 244 256 263 271 279 265 254 247 247 257 259 251 246 244 240 239 240 235 227
265 242 216 192 201 217 242 220 226 235 216 220 233 228 233 238 233 229 233 241 238 229 235 237 206 219 233 238 251 255 249 241 233 238 244 249 261 262 254 305 320 286 300 356 356 329 287 235 222 230 237 233 240 253 262 265 225 224 238 235 232 229 226 228 233 235 242 246 243 244 254 261 268 273 272 269 269 272 275 276 275 269 259 245 230 229 233 230
275 261 232 200 210 227 236 231 234 232 215 214 211 199 224 235 240 231 222 229 231 226 237 236 210 217 222 223 238 246 245 241 232 232 238 236 241 249 253 266 275 271 287 328 323 286 40 255 241 241 245 245 249 257 266 272 264 257 258 255 243 230 226 226 231 235 239 248 251 244 251 258 258 259 267 274 275 276 278 279 281 279 273 264 248 239 240 239
276 277 290 343 327 234 232 242 250 252 237 225 214 211 228 233 233 229 222 229 229 218 224 232 214 219 226 227 233 238 239 242 236 230 236 239 242 252 262 265 259 247 240 245 222 174 197 236 246 253 256 255 259 260 261 264 265 262 261 261 257 245 232 229 235 239 238 246 256 252 250 254 256 257 263 269 276 283 287 284 281 281 282 282 277 265 249 240
278 275 300 333 317 284 301 308 304 291 264 248 241 231 235 238 235 232 223 227 234 208 210 236 228 217 224 227 229 232 228 233 241 234 227 226 227 235 249 252 251 230 207 222 218 164 203 235 237 247 256 255 255 257 256 258 262 264 260 256 257 261 255 246 245 247 249 254 258 258 257 258 262 264 265 272 283 290 290 285 281 281 282 283 281 274 264 258
272 287 308 325 305 297 305 299 297 298 275 261 256 241 244 248 247 246 235 227 239 212 202 229 237 229 229 229 229 233 228 229 241 242 235 228 218 216 231 231 234 225 190 208 224 190 212 227 222 232 251 248 242 246 247 247 251 255 257 256 256 259 258 256 257 256 256 256 255 256 261 264 265 265 270 280 284 281 278 277 278 280 280 280 280 277 273 273
279 302 309 310 300 291 292 284 278 286 274 250 240 241 249 251 251 259 258 242 247 248 228 235 244 243 242 239 233 235 232 230 238 242 240 240 226 212 216 208 203 207 195 193 197 179 194 217 216 222 244 239 231 236 239 240 242 245 251 259 257 252 249 248 249 249 247 250 254 256 258 258 256 260 269 272 269 268 268 269 272 276 277 277 277 276 273 274
284 294 288 284 289 274 275 287 285 281 274 257 255 255 254 258 258 259 265 254 243 249 251 253 256 255 253 249 244 244 245 243 247 252 253 257 252 238 233 216 201 198 188 192 202 181 185 209 212 214 239 243 230 233 237 238 240 239 233 237 242 244 246 245 245 245 244 245 250 250 248 251 255 259 260 260 259 260 261 262 263 267 272 274 271 272 273 272
Height
827 827 826 826 825 825 824 823 822 821 821 820 819 818 817 816 815 814 813 812 811 810 809 809 808 808 807 806 806 805 805 805 804 803 802 799 799 799 799 800 800 800 800 801 801 802 802 803 802 802 803 803 804 803 803 803 803 809 814 820 820 813 804 795 791 791 791 791 791 791 789 791 793 791 789 789 792 792 793 792 790 789 789 791 794 795 797 799
828 827 826 826 825 824 824 823 822 821 821 820 819 819 817 817 815 814 813 812 811 810 809 808 808 808 806 807 806 805 805 804 803 801 798 797 798 798 798 799 799 800 800 801 801 801 802 801 800 800 803 805 803 802 805 803 805 810 812 815 813 803 794 787 786 785 787 790 789 788 788 790 791 789 790 792 794 792 793 792 789 791 790 791 793 795 796 798
828 827 827 826 825 824 824 823 822 821 820 820 819 818 818 817 816 815 814 812 811 810 809 808 808 807 806 806 805 805 804 803 803 798 793 794 796 796 797 798 798 799 799 800 800 800 800 799 798 799 803 805 803 803 806 804 805 807 809 815 807 794 790 784 782 783 784 786 788 788 786 788 787 785 789 793 792 791 791 789 788 790 787 789 792 793 795 797
828 827 826 826 825 824 823 823 822 821 820 820 819 818 818 817 816 815 814 813 811 810 809 808 807 807 807 805 805 805 803 806 802 793 790 792 793 794 796 797 797 799 799 800 800 800 800 799 798 798 802 806 802 801 805 804 804 802 805 811 799 789 792 786 782 783 783 786 789 788 787 788 785 784 788 791 794 791 785 782 781 782 781 784 789 790 792 794
828 827 826 826 825 824 823 822 821 821 820 819 818 818 817 816 816 815 814 813 811 810 809 808 807 806 806 805 806 804 806 811 800 789 791 791 792 794 795 796 797 798 798 799 800 799 800 798 798 799 804 807 803 802 803 798 798 802 800 799 792 788 791 786 783 785 785 787 790 790 789 787 783 783 785 788 792 785 776 774 772 773 774 776 782 785 788 790
828 827 826 825 824 824 823 822 821 820 819 818 818 817 816 816 815 814 813 812 811 810 809 808 807 806 806 805 806 804 809 810 795 789 792 791 793 794 794 796 796 797 798 799 799 799 799 798 800 804 805 806 804 802 799 793 795 803 799 792 789 787 788 785 784 787 787 789 791 790 788 784 784 785 782 784 783 774 769 769 767 768 768 769 774 780 783 785
828 827 826 825 824 824 822 822 821 820 819 818 817 816 816 815 814 814 812 812 811 809 808 807 806 805 805 805 805 805 808 803 790 790 792 791 793 793 794 796 796 798 797 798 799 799 799 799 802 803 805 805 802 797 793 791 795 802 799 792 788 785 785 783 784 787 788 789 788 787 787 786 787 786 781 778 773 768 767 766 766 766 766 767 772 776 778 779
827 827 826 825 824 823 822 821 820 819 818 817 817 816 815 814 813 812 811 811 809 809 808 806 806 805 805 805 805 807 806 798 790 791 791 791 793 792 795 795 795 797 796 798 798 798 798 800 801 799 803 803 798 795 792 794 798 800 798 792 788 786 784 782 784 787 787 788 786 786 788 787 785 784 781 773 767 766 765 765 766 766 766 768 771 773 775 776
827 826 825 825 824 823 822 820 820 819 817 816 816 815 814 813 812 811 811 810 808 808 806 805 805 804 805 804 806 809 802 792 790 791 791 792 793 793 794 794 795 796 796 797 796 797 799 799 799 797 802 800 796 796 794 799 801 795 793 791 788 787 784 782 783 785 787 786 786 788 789 786 782 784 779 764 762 764 762 764 764 765 767 767 769 771 772 774
826 824 824 823 822 822 821 820 819 818 817 816 814 814 813 812 811 810 809 809 808 807 805 805 804 804 805 803 807 810 797 789 792 791 791 792 792 793 793 794 794 794 795 796 795 796 796 797 796 795 799 799 797 797 794 798 798 791 792 792 790 789 785 783 783 782 784 784 785 788 788 784 781 787 778 758 757 760 761 763 762 764 766 765 767 767 768 770
825 824 823 822 821 820 819 818 818 817 816 814 813 813 812 811 810 809 808 808 807 806 805 804 803 804 804 804 808 806 793 790 792 790 792 792 792 793 793 794 794 794 795 794 794 794 794 794 793 795 800 799 798 796 793 793 792 790 792 794 791 789 785 783 782 781 782 783 782 784 787 784 783 786 773 755 756 757 758 761 760 762 762 762 764 764 766 766
824 823 822 821 820 819 818 817 816 815 814 813 812 811 810 810 808 808 807 806 805 805 804 803 804 803 804 805 804 797 791 791 791 790 791 791 792 792 792 794 793 794 794 793 793 792 793 793 793 798 799 797 799 798 795 791 792 792 794 798 793 787 785 780 778 777 780 782 778 783 791 786 781 779 763 753 756 757 758 759 758 759 758 760 761 761 762 761
824 823 822 821 819 818 817 816 814 813 812 811 810 809 809 808 807 806 805 805 804 803 803 802 803 802 805 804 795 791 790 790 790 790 790 790 791 792 792 793 792 793 793 793 793 791 793 793 793 797 794 796 800 797 794 791 793 794 795 798 796 794 787 773 770 772 777 780 775 785 795 781 769 767 757 750 753 757 759 758 756 756 756 757 758 758 758 757
823 822 821 820 819 818 816 815 814 812 810 809 807 807 806 805 805 804 803 803 802 802 802 802 802 802 805 800 789 789 789 788 789 789 789 790 790 791 792 792 792 793 793 793 793 792 792 792 793 795 794 796 796 794 795 794 795 796 796 796 797 803 791 767 764 768 777 781 773 784 797 779 761 758 754 748 749 754 757 757 756 755 754 755 755 755 754 753
823 822 821 820 818 817 816 814 813 810 809 807 806 805 804 803 802 801 802 801 800 801 800 801 801 801 804 796 787 788 788 787 788 787 788 790 790 791 791 791 792 791 792 792 792 792 792 793 794 796 795 793 794 798 801 799 794 793 803 802 795 800 791 768 763 764 772 780 775 784 794 780 761 753 748 744 746 751 754 754 754 753 752 752 751 751 751 749
823 822 821 819 818 816 815 814 812 809 807 805 804 803 801 800 799 799 799 798 799 799 799 801 800 801 804 795 787 786 786 786 786 786 787 788 789 790 790 791 791 791 792 791 792 792 792 793 794 795 796 795 798 802 805 807 800 791 799 804 795 794 788 773 769 764 766 777 779 780 781 772 760 751 745 743 745 749 752 752 751 751 749 748 747 747 747 746
822 821 820 819 818 816 815 813 811 808 806 804 802 800 799 798 796 796 796 796 798 797 798 799 797 800 799 790 787 786 783 784 785 785 786 787 789 789 790 791 791 791 791 791 793 792 792 794 795 795 795 796 797 800 811 817 808 794 791 795 791 787 785 778 774 768 766 774 778 778 776 767 756 750 747 745 746 748 750 750 748 747 745 743 743 742 742 742
822 821 819 818 817 815 814 812 810 807 805 802 800 798 796 795 794 794 794 795 796 798 800 798 799 806 799 786 785 783 780 782 783 783 785 785 787 788 789 790 790 791 792 793 793 792 794 793 794 798 797 797 797 801 813 811 799 793 788 789 786 780 779 776 770 768 768 772 776 779 779 769 757 752 749 745 746 747 747 746 745 742 741 739 738 738 737 737
821 820 819 818 817 815 814 812 810 807 804 801 799 797 794 793 792 792 793 794 795 796 798 795 795 801 794 781 779 780 779 781 781 782 783 784 786 787 788 789 789 791 794 796 795 792 794 795 798 804 801 796 794 794 798 791 784 784 781 782 783 780 777 769 763 764 767 773 776 775 773 766 758 753 749 743 742 744 743 742 742 739 737 735 734 733 732 732
820 819 819 817 816 815 813 812 810 807 805 801 799 797 794 793 793 792 793 792 789 785 784 784 783 784 780 776 777 779 780 780 780 781 781 782 784 786 788 788 789 793 794 795 795 790 791 800 804 800 792 787 785 783 781 779 777 778 778 779 779 780 777 764 760 762 762 770 772 766 765 761 752 747 744 741 739 739 739 739 738 735 733 730 730 728 726 725
819 819 818 817 816 814 813 811 809 807 806 803 802 800 797 797 797 796 794 788 781 778 777 776 776 776 773 773 775 775 778 779 779 778 780 780 782 786 787 787 793 797 794 791 792 788 791 801 798 786 779 778 777 775 774 775 774 775 777 779 778 778 774 761 759 762 761 768 768 760 762 759 750 744 740 738 738 736 735 735 733 729 727 725 724 723 720 720
819 818 817 817 815 814 813 811 809 807 806 804 804 803 801 801 802 801 799 791 779 774 775 773 773 772 769 770 771 772 776 779 777 777 778 779 781 783 783 785 792 793 789 789 792 795 798 797 786 776 774 774 773 771 772 773 773 775 776 781 783 778 771 762 761 765 764 769 770 763 763 759 748 741 737 734 733 731 729 728 726 724 722 721 718 716 715 716
818 817 817 816 815 814 812 811 809 807 806 806 805 805 804 804 803 802 803 797 782 772 771 770 770 770 769 769 768 770 775 774 773 773 773 776 779 780 780 783 786 785 785 788 791 797 798 788 777 772 773 774 773 771 772 774 775 776 778 784 784 776 775 772 767 769 768 768 768 765 765 761 750 742 735 730 726 724 724 722 720 719 718 715 711 710 712 713
817 816 817 815 815 814 812 811 809 807 808 807 807 806 805 804 803 803 802 795 780 768 764 762 763 764 764 764 763 767 770 766 765 766 766 770 775 777 777 777 781 783 782 779 781 784 782 773 769 770 769 771 774 773 774 779 779 775 776 781 779 771 772 770 765 766 767 766 766 769 769 757 747 743 732 723 721 720 720 719 718 716 712 709 707 707 708 709
815 816 815 815 815 813 812 811 808 809 808 807 807 806 805 805 803 804 803 794 778 766 762 759 759 758 755 758 760 761 765 762 759 760 761 764 769 774 774 771 775 780 777 773 774 774 769 765 765 769 770 770 774 775 775 778 780 776 771 769 768 766 766 765 763 766 773 773 768 772 770 744 727 732 728 720 719 717 717 718 717 713 707 705 706 705 704 705
814 814 814 814 814 813 813 810 809 810 807 807 808 805 806 805 804 805 805 799 780 765 764 760 756 754 751 755 758 760 767 764 756 756 759 761 762 766 771 770 769 772 769 768 769 765 761 762 762 767 771 771 775 778 773 773 780 780 770 762 762 764 766 767 767 773 780 776 767 768 772 750 723 722 724 717 717 715 715 716 714 711 705 701 702 700 700 703
813 813 813 814 813 814 814 811 812 810 807 808 806 806 806 803 806 805 803 803 779 754 758 760 754 751 750 754 754 759 769 763 757 759 759 761 761 761 769 768 766 767 762 767 773 762 756 764 766 767 771 773 778 777 768 770 780 778 770 766 764 764 768 769 771 777 777 772 768 764 772 770 739 719 716 713 716 716 713 715 712 707 703 698 697 695 696 699
811 812 812 813 813 814 815 813 813 810 809 809 805 807 805 803 807 802 807 810 772 741 750 756 752 751 751 755 753 756 763 758 758 764 760 762 763 762 767 765 763 765 760 768 778 763 753 763 765 765 773 775 773 768 762 765 773 773 770 769 768 769 771 771 774 778 776 776 778 765 769 779 746 713 711 709 713 717 711 710 706 699 697 696 694 692 692 695
809 810 810 812 812 813 814 813 813 811 810 808 807 807 803 805 806 801 813 806 757 734 747 750 751 754 754 759 758 756 759 759 760 764 763 764 764 765 768 765 762 764 761 764 769 761 758 765 763 762 771 770 764 767 767 765 767 770 771 769 770 772 771 774 777 779 782 781 776 765 768 776 742 705 711 715 713 715 708 703 698 692 692 692 690 689 689 691
807 807 809 811 811 812 812 811 811 810 809 808 807 806 804 806 805 808 816 791 748 741 751 751 753 754 756 762 762 758 759 761 763 765 765 765 764 765 767 764 764 767 766 765 764 761 763 768 767 763 763 762 764 773 775 771 769 770 772 771 774 775 773 779 777 778 788 776 758 756 759 768 746 704 701 709 703 702 700 698 694 689 689 688 686 686 686 689
804 805 807 808 809 810 811 811 809 809 809 808 806 806 806 805 806 810 798 765 748 750 751 754 755 751 755 758 755 757 759 760 763 765 766 766 768 769 768 767 769 774 776 774 768 763 765 770 767 760 759 762 766 771 775 776 773 771 773 773 777 779 778 785 783 785 793 767 739 742 748 760 749 707 692 694 688 689 691 691 689 686 686 684 682 682 682 685
802 803 804 805 806 808 809 809 808 809 810 808 808 807 807 810 805 794 774 753 752 752 745 750 754 751 754 752 748 753 757 758 759 761 763 767 770 769 767 764 766 772 775 774 769 764 763 762 758 758 760 760 762 769 777 778 776 774 774 777 784 785 784 788 787 787 786 759 732 736 747 749 729 700 693 690 684 686 685 684 684 680 680 680 678 678 679 683
799 800 801 802 803 805 806 806 806 809 809 809 811 807 812 819 796 767 761 757 751 747 741 742 747 748 751 752 750 751 753 754 755 758 757 761 767 765 762 759 756 758 759 762 768 767 762 754 755 761 759 755 757 763 769 769 772 775 772 775 783 785 786 787 781 774 766 749 733 737 746 738 713 694 691 686 681 681 677 678 678 674 674 674 672 675 677 681
796 797 798 797 798 800 802 805 805 806 808 811 813 813 819 816 779 751 756 755 744 742 742 742 745 748 749 750 747 745 752 753 750 755 757 760 767 765 761 758 754 752 754 760 762 763 763 752 748 753 749 747 749 747 747 751 764 768 759 762 768 767 771 772 765 758 753 744 737 742 743 727 707 691 679 675 674 674 673 672 671 669 669 669 670 674 677 680
793 794 794 793 794 796 798 802 803 805 808 808 813 819 817 798 771 759 758 748 741 742 745 746 747 752 752 748 744 740 744 747 746 752 756 757 761 758 752 751 751 751 756 763 756 753 758 744 735 742 741 742 744 737 736 743 757 760 752 758 761 752 751 755 751 745 750 754 743 738 731 707 690 679 669 673 672 669 672 670 668 669 667 668 671 674 677 680
789 790 790 788 788 790 794 797 799 803 804 806 816 818 800 776 763 761 752 742 742 743 748 751 749 756 756 748 747 744 740 743 747 751 754 753 751 746 743 740 742 745 747 752 748 745 751 742 736 746 744 744 747 741 739 742 747 752 755 756 750 741 742 751 753 743 750 760 737 719 717 699 687 677 663 669 673 669 672 670 669 669 665 667 671 673 676 678
786 786 786 782 782 785 789 792 796 801 801 804 813 805 782 765 758 753 745 742 744 741 748 754 747 749 753 746 745 746 744 745 746 750 751 750 743 735 735 733 732 736 735 737 738 735 739 738 738 746 746 748 754 749 745 743 742 748 755 748 740 742 744 749 759 754 756 761 731 708 712 706 700 686 662 666 675 670 669 668 667 666 664 666 669 670 673 675
783 783 780 775 777 781 785 789 792 797 801 804 806 792 773 763 756 751 748 746 746 744 749 752 743 738 741 741 738 739 745 746 746 749 746 742 733 721 725 729 725 727 726 729 734 731 733 738 740 749 753 752 754 752 748 746 745 746 749 745 743 750 751 749 759 759 758 759 734 710 710 702 692 681 666 669 674 668 665 664 664 664 664 666 667 667 669 671
782 782 775 768 772 778 781 785 787 794 799 801 802 789 770 761 756 754 754 753 753 752 750 748 741 736 735 735 732 733 740 740 740 746 742 736 728 714 714 719 719 721 720 725 732 729 730 737 740 751 759 754 752 753 749 747 749 751 750 749 746 747 748 745 748 745 744 749 737 723 714 688 666 662 659 661 664 662 663 662 662 663 662 663 664 664 666 668
781 780 773 765 769 773 777 782 786 792 795 792 789 780 767 763 759 754 753 755 754 752 750 746 743 741 736 733 731 730 734 734 734 739 735 727 721 713 709 710 714 718 716 720 727 726 731 736 736 749 761 754 746 744 741 737 740 748 752 752 748 746 745 745 741 732 731 739 738 736 721 678 648 648 648 651 658 658 658 659 660 661 660 660 660 661 664 666
781 779 771 765 768 770 775 783 785 786 788 785 780 774 768 765 761 756 753 754 753 749 747 747 746 745 742 738 735 729 730 732 730 732 730 722 719 716 710 706 709 714 717 723 726 725 731 733 731 741 749 741 730 725 724 720 720 729 735 736 737 739 742 747 742 727 724 730 726 730 722 676 644 645 645 647 655 653 653 656 656 657 658 659 659 658 660 662
780 776 769 766 768 769 775 782 780 779 782 779 771 767 768 765 762 761 758 756 756 752 748 747 746 746 744 741 739 734 732 732 730 729 725 719 717 714 708 703 704 708 714 721 720 715 719 725 729 730 725 719 715 715 716 713 711 716 720 719 723 728 730 735 733 723 723 726 718 721 716 673 642 645 647 647 652 651 651 653 653 655 655 655 657 657 657 657
776 772 769 768 768 768 774 778 778 778 778 772 766 764 765 764 761 760 758 757 756 752 750 749 747 746 744 741 740 739 738 735 731 727 725 721 716 711 706 704 706 708 711 715 715 712 716 724 728 727 719 711 709 712 717 717 716 717 716 714 716 718 716 716 716 713 715 719 715 716 709 673 645 646 649 647 649 651 650 650 651 653 653 654 655 654 654 655
773 769 768 768 767 767 769 770 772 775 775 772 770 767 764 762 761 758 756 755 753 751 750 748 746 745 744 742 742 742 743 743 737 730 729 728 721 714 711 710 711 712 710 711 711 710 716 720 723 729 732 727 722 719 718 720 722 718 714 712 711 711 712 712 712 712 713 710 704 703 697 673 651 648 651 649 648 650 650 649 650 651 652 653 653 651 652 652
772 769 766 766 766 763 759 756 758 764 767 769 768 765 763 760 756 754 753 750 748 749 748 745 743 743 744 745 745 743 742 746 746 740 737 736 728 721 719 719 719 718 715 714 711 708 712 714 717 729 738 736 731 720 710 713 722 720 713 710 709 710 712 713 714 717 714 704 694 692 688 671 654 651 652 650 649 651 650 649 650 651 651 651 650 650 649 649
772 768 763 763 763 760 755 750 750 753 756 761 762 759 758 756 748 745 746 745 743 742 741 741 742 744 746 746 747 745 741 742 746 745 744 743 735 726 721 720 721 720 720 722 720 716 718 716 712 719 723 721 719 709 700 705 715 717 712 709 710 709 709 711 715 714 707 698 691 687 682 675 666 660 653 647 648 650 649 647 647 647 647 648 648 648 646 645
772 765 758 759 761 757 754 751 749 748 747 751 751 747 747 748 745 742 740 738 735 735 737 739 740 743 744 745 745 744 740 739 743 743 742 741 737 729 723 723 722 718 719 725 724 721 726 725 716 713 713 709 708 704 700 703 707 709 709 709 709 709 707 710 710 702 696 695 690 682 677 675 670 663 654 647 645 646 647 646 644 641 640 642 644 645 644 644
772 765 757 759 761 756 751 750 750 749 746 745 742 736 735 738 740 739 736 732 730 732 736 738 737 736 736 736 739 738 736 737 739 738 736 735 734 731 727 724 721 718 720 725 725 722 724 726 722 719 717 713 710 708 705 704 703 703 705 705 704 705 707 707 702 692 690 691 685 677 673 668 662 659 655 647 643 643 643 641 638 635 635 635 637 640 640 640
773 769 762 762 763 758 754 753 754 752 750 747 743 738 735 732 729 728 729 729 729 729 732 733 730 729 728 727 729 731 731 731 729 725 724 724 725 726 727 721 718 720 721 720 720 720 720 721 723 725 724 720 717 714 710 707 705 702 702 702 701 702 701 698 693 689 689 688 680 675 671 663 658 655 650 645 643 642 639 635 632 632 632 632 633 635 635 635
774 772 768 767 767 763 759 756 756 754 752 750 746 741 738 735 730 725 723 725 727 726 725 725 722 720 721 722 724 726 722 719 716 710 708 712 716 718 720 715 713 720 723 719 718 719 719 719 719 724 727 722 717 715 712 710 708 703 699 698 700 700 695 691 688 688 689 685 676 674 674 667 657 651 647 646 644 641 638 633 629 629 629 629 629 630 630 629
773 772 773 774 770 765 761 756 755 756 752 749 745 740 737 736 733 729 724 720 722 724 722 721 719 717 718 719 721 720 714 709 706 700 696 700 704 706 706 703 703 712 720 719 716 718 721 718 715 722 725 715 708 710 708 706 706 705 702 700 697 692 686 682 681 679 678 675 672 674 674 663 651 648 649 647 642 638 635 631 628 627 625 624 625 625 625 624
774 772 772 775 771 764 761 759 758 757 751 744 740 737 735 733 730 731 729 720 717 719 719 719 719 718 718 717 714 712 709 705 702 699 696 695 695 696 697 695 694 700 709 713 712 713 716 714 711 714 714 703 697 697 698 702 706 703 699 692 681 673 673 673 671 668 664 663 665 665 657 647 644 647 647 642 635 631 627 624 624 624 620 619 619 619 620 619